{"data":{"norad_id":61051,"intl_designator":"2024-164B","name":"STARLINK-11252 [DTC]","alt_names":[],"object_type":"PAYLOAD","status":"ACTIVE","operator":null,"country":"US","launch_date":"2024-09-13","launch_site_code":"AFWTR","launch_vehicle":null,"mission":null,"orbit_class":"UNKNOWN","rcs_meters":null,"size_class":null,"mass_kg":null,"dimensions":null,"purposes":["comms"],"wikipedia_slug":null,"has_3d_model":false,"image_url":null,"decayed_at":null,"tle_current":{"epoch":"2026-05-24T22:17:24.319680Z","epoch_age_seconds":82028,"freshness":"FRESH","line1":"1 61051U 24164B   26144.92875370  .00001493  00000+0  17172-4 0  9996","line2":"2 61051  53.1554 295.3961 0000971  72.8623 287.2501 15.69717939 97398","mean_motion":15.69717939,"eccentricity":9.71e-5,"inclination_deg":53.1554,"raan_deg":295.3961,"arg_perigee_deg":72.8623,"mean_anomaly_deg":287.2501,"bstar":1.7172e-5,"rev_number":9739,"period_min":91.736226249498,"perigee_km":359.0497877722,"apogee_km":360.35827650064,"semimajor_km":6737.8410321364,"source":"CELESTRAK","updated_at":"2026-05-25T13:38:19.353137Z"}}}